PTR2531 CYTZ-CYSB

Flight info

Callsign PTR2531
Flight time 0h 42m
Altitude 19000
Route IKLEN DCT TONNY DCT YEE/N0319F180
Aircraft DH8D/M-SDE2E3FGRY/H

Departure

Time 2026-04-28 13:43
Airport Billy Bishop Toronto City Airport (CYTZ)

Arrival

Time 2026-04-28 14:25
Airport Sudbury Airport (CYSB)
Time Latitude Longitude Altitude Speed Heading
2026-04-28 13:23 43.63099 -79.39542 239 ft 0 kts 344°
2026-04-28 13:36 43.63094 -79.39540 239 ft 2 kts 344°
2026-04-28 13:36 43.63079 -79.39534 239 ft 1 kts 344°
2026-04-28 13:36 43.63070 -79.39530 239 ft 2 kts 330°
2026-04-28 13:37 43.63060 -79.39516 239 ft 2 kts 297°
2026-04-28 13:37 43.63057 -79.39496 239 ft 2 kts 264°
2026-04-28 13:37 43.63059 -79.39485 239 ft 0 kts 251°
2026-04-28 13:38 43.63059 -79.39487 239 ft 2 kts 254°
2026-04-28 13:39 43.63045 -79.39552 238 ft 8 kts 252°
2026-04-28 13:39 43.63027 -79.39628 238 ft 7 kts 248°
2026-04-28 13:39 43.63003 -79.39692 238 ft 7 kts 245°
2026-04-28 13:39 43.62986 -79.39756 238 ft 6 kts 251°
2026-04-28 13:40 43.62973 -79.39822 238 ft 9 kts 264°
2026-04-28 13:40 43.62992 -79.39919 240 ft 9 kts 292°
2026-04-28 13:40 43.63017 -79.39999 241 ft 8 kts 291°
2026-04-28 13:40 43.63016 -79.40074 241 ft 7 kts 244°
2026-04-28 13:41 43.62985 -79.40133 241 ft 7 kts 231°
2026-04-28 13:41 43.62940 -79.40193 241 ft 10 kts 221°
2026-04-28 13:41 43.62878 -79.40268 241 ft 13 kts 221°
2026-04-28 13:41 43.62812 -79.40328 241 ft 10 kts 187°
2026-04-28 13:42 43.62762 -79.40277 241 ft 9 kts 94°
2026-04-28 13:42 43.62765 -79.40254 241 ft 0 kts 71°
2026-04-28 13:42 43.62798 -79.40120 240 ft 53 kts 71°
2026-04-28 13:43 43.63011 -79.39255 248 ft 126 kts 72°
2026-04-28 13:43 43.63298 -79.38008 634 ft 147 kts 75°
2026-04-28 13:43 43.63604 -79.36649 1230 ft 158 kts 80°
2026-04-28 13:43 43.63953 -79.35069 1471 ft 193 kts 80°
2026-04-28 13:44 43.64339 -79.33194 1838 ft 213 kts 82°
2026-04-28 13:44 43.64788 -79.31174 2342 ft 228 kts 76°
2026-04-28 13:44 43.65807 -79.29414 2714 ft 253 kts 36°
2026-04-28 13:44 43.67499 -79.28848 3190 ft 254 kts 351°
2026-04-28 13:45 43.69089 -79.29708 3672 ft 242 kts 317°
2026-04-28 13:45 43.70444 -79.31069 4338 ft 240 kts 314°
2026-04-28 13:45 43.71748 -79.32398 5028 ft 235 kts 315°
2026-04-28 13:45 43.73061 -79.33749 5645 ft 235 kts 314°
2026-04-28 13:46 43.74356 -79.35090 6338 ft 231 kts 314°
2026-04-28 13:46 43.75642 -79.36423 6885 ft 234 kts 314°
2026-04-28 13:46 43.76968 -79.37814 7360 ft 240 kts 314°
2026-04-28 13:46 43.78292 -79.39195 7914 ft 243 kts 314°
2026-04-28 13:47 43.79659 -79.40628 8427 ft 247 kts 315°
2026-04-28 13:47 43.81023 -79.42057 8955 ft 251 kts 315°
2026-04-28 13:47 43.82424 -79.43523 9509 ft 253 kts 315°
2026-04-28 13:47 43.83825 -79.44992 10096 ft 253 kts 314°
2026-04-28 13:48 43.85234 -79.46472 10604 ft 256 kts 315°
2026-04-28 13:48 43.86655 -79.47965 11094 ft 260 kts 315°
2026-04-28 13:48 43.88093 -79.49477 11621 ft 262 kts 315°
2026-04-28 13:48 43.89548 -79.51006 12162 ft 264 kts 314°
2026-04-28 13:49 43.91029 -79.52563 12749 ft 264 kts 314°
2026-04-28 13:49 43.92497 -79.54109 13221 ft 268 kts 315°
2026-04-28 13:49 43.93976 -79.55670 13687 ft 272 kts 315°
2026-04-28 13:49 43.95478 -79.57252 14221 ft 271 kts 315°
2026-04-28 13:50 43.96988 -79.58845 14674 ft 273 kts 315°
2026-04-28 13:50 43.98489 -79.60432 15085 ft 277 kts 315°
2026-04-28 13:50 44.00036 -79.62067 15558 ft 276 kts 315°
2026-04-28 13:50 44.01569 -79.63689 15943 ft 278 kts 315°
2026-04-28 13:51 44.03106 -79.65318 16294 ft 282 kts 315°
2026-04-28 13:51 44.04664 -79.66963 16773 ft 281 kts 315°
2026-04-28 13:51 44.06400 -79.68301 17067 ft 295 kts 336°
2026-04-28 13:51 44.08400 -79.69004 17452 ft 300 kts 341°
2026-04-28 13:52 44.10450 -79.69663 17788 ft 302 kts 341°
2026-04-28 13:52 44.12506 -79.70324 18137 ft 303 kts 340°
2026-04-28 13:52 44.14565 -79.70989 18425 ft 308 kts 340°
2026-04-28 13:52 44.16630 -79.71663 18831 ft 305 kts 340°
2026-04-28 13:53 44.18722 -79.72312 19118 ft 309 kts 343°
2026-04-28 13:53 44.20856 -79.72732 19509 ft 309 kts 347°
2026-04-28 13:53 44.22997 -79.73095 19759 ft 313 kts 347°
2026-04-28 13:53 44.25197 -79.73476 19812 ft 324 kts 347°
2026-04-28 13:54 44.27459 -79.73870 19839 ft 334 kts 347°
2026-04-28 13:54 44.29798 -79.74279 19836 ft 344 kts 347°
2026-04-28 13:54 44.32228 -79.74704 19837 ft 352 kts 347°
2026-04-28 13:54 44.34678 -79.75133 19831 ft 359 kts 348°
2026-04-28 13:55 44.37167 -79.75570 19833 ft 365 kts 348°
2026-04-28 13:55 44.39695 -79.76014 19827 ft 369 kts 348°
2026-04-28 13:55 44.42254 -79.76464 19813 ft 373 kts 348°
2026-04-28 13:55 44.44834 -79.76920 19819 ft 376 kts 348°
2026-04-28 13:56 44.47428 -79.77377 19818 ft 378 kts 348°
2026-04-28 13:56 44.50068 -79.77844 19809 ft 381 kts 348°
2026-04-28 13:56 44.52710 -79.78313 19805 ft 382 kts 348°
2026-04-28 13:56 44.55321 -79.78776 19810 ft 383 kts 348°
2026-04-28 13:57 44.57974 -79.79291 19810 ft 382 kts 345°
2026-04-28 13:57 44.60492 -79.80293 19819 ft 378 kts 335°
2026-04-28 13:57 44.63004 -79.81495 19819 ft 379 kts 335°
2026-04-28 13:57 44.65500 -79.82693 19813 ft 380 kts 335°
2026-04-28 13:58 44.67984 -79.83885 19798 ft 380 kts 336°
2026-04-28 13:58 44.70480 -79.85081 19800 ft 381 kts 336°
2026-04-28 13:58 44.73015 -79.86294 19792 ft 381 kts 336°
2026-04-28 13:58 44.75523 -79.87492 19789 ft 381 kts 336°
2026-04-28 13:59 44.78028 -79.88690 19811 ft 381 kts 335°
2026-04-28 13:59 44.80523 -79.89883 19808 ft 381 kts 336°
2026-04-28 13:59 44.83030 -79.91080 19802 ft 381 kts 336°
2026-04-28 13:59 44.85539 -79.92281 19809 ft 381 kts 336°
2026-04-28 14:00 44.88094 -79.93436 19804 ft 383 kts 340°
2026-04-28 14:00 44.90663 -79.94315 19795 ft 385 kts 342°
2026-04-28 14:00 44.93279 -79.95157 19791 ft 385 kts 342°
2026-04-28 14:00 44.95912 -79.96005 19792 ft 385 kts 343°
2026-04-28 14:01 44.98508 -79.96845 19803 ft 386 kts 342°
2026-04-28 14:01 45.01126 -79.97694 19800 ft 386 kts 342°
2026-04-28 14:01 45.03751 -79.98548 19796 ft 386 kts 342°
2026-04-28 14:01 45.06366 -79.99401 19800 ft 387 kts 342°
2026-04-28 14:02 45.08986 -80.00258 19785 ft 387 kts 342°
2026-04-28 14:02 45.11617 -80.01121 19768 ft 387 kts 342°
2026-04-28 14:02 45.14256 -80.01987 19774 ft 387 kts 342°
2026-04-28 14:02 45.16864 -80.02843 19785 ft 387 kts 342°
2026-04-28 14:03 45.19471 -80.03700 19784 ft 386 kts 342°
2026-04-28 14:03 45.22104 -80.04568 19776 ft 386 kts 342°
2026-04-28 14:03 45.24691 -80.05421 19776 ft 385 kts 342°
2026-04-28 14:03 45.27313 -80.06286 19770 ft 386 kts 342°
2026-04-28 14:04 45.29916 -80.07147 19762 ft 386 kts 342°
2026-04-28 14:04 45.32522 -80.08010 19760 ft 386 kts 342°
2026-04-28 14:04 45.35141 -80.08878 19748 ft 386 kts 342°
2026-04-28 14:04 45.37780 -80.09753 19750 ft 387 kts 342°
2026-04-28 14:05 45.40382 -80.10615 19743 ft 387 kts 342°
2026-04-28 14:05 45.43001 -80.11485 19748 ft 387 kts 342°
2026-04-28 14:05 45.45648 -80.12365 19747 ft 387 kts 342°
2026-04-28 14:05 45.48249 -80.13231 19739 ft 387 kts 342°
2026-04-28 14:06 45.50896 -80.14113 19737 ft 388 kts 342°
2026-04-28 14:06 45.53495 -80.14980 19735 ft 388 kts 342°
2026-04-28 14:06 45.56131 -80.15860 19744 ft 388 kts 342°
2026-04-28 14:06 45.58756 -80.16736 19736 ft 388 kts 342°
2026-04-28 14:07 45.61383 -80.17615 19741 ft 388 kts 341°
2026-04-28 14:07 45.64014 -80.18495 19731 ft 389 kts 341°
2026-04-28 14:07 45.66658 -80.19382 19736 ft 389 kts 341°
2026-04-28 14:07 45.69279 -80.20261 19746 ft 390 kts 342°
2026-04-28 14:08 45.71938 -80.21154 19732 ft 390 kts 341°
2026-04-28 14:08 45.74579 -80.22041 19736 ft 391 kts 341°
2026-04-28 14:08 45.77206 -80.22924 19727 ft 391 kts 341°
2026-04-28 14:08 45.78972 -80.23519 19728 ft 391 kts 341°
2026-04-28 14:09 45.82515 -80.24712 19730 ft 391 kts 341°
2026-04-28 14:09 45.85169 -80.25608 19719 ft 391 kts 341°
2026-04-28 14:09 45.87807 -80.26498 19707 ft 391 kts 341°
2026-04-28 14:09 45.90431 -80.27386 19743 ft 391 kts 341°
2026-04-28 14:10 45.93107 -80.28291 19746 ft 392 kts 341°
2026-04-28 14:10 45.95759 -80.29190 19727 ft 393 kts 341°
2026-04-28 14:10 45.98418 -80.30091 19669 ft 395 kts 341°
2026-04-28 14:10 46.01064 -80.30988 19207 ft 384 kts 341°
2026-04-28 14:11 46.03596 -80.31851 18638 ft 374 kts 340°
2026-04-28 14:11 46.06117 -80.32710 18037 ft 367 kts 339°
2026-04-28 14:11 46.08561 -80.33545 17420 ft 361 kts 339°
2026-04-28 14:11 46.11019 -80.34387 16794 ft 356 kts 340°
2026-04-28 14:12 46.13382 -80.35195 16198 ft 351 kts 340°
2026-04-28 14:12 46.15747 -80.36004 15578 ft 346 kts 340°
2026-04-28 14:12 46.18057 -80.36795 14966 ft 344 kts 340°
2026-04-28 14:12 46.20424 -80.37608 14359 ft 349 kts 340°
2026-04-28 14:13 46.22785 -80.38418 13773 ft 353 kts 340°
2026-04-28 14:13 46.25168 -80.39235 13150 ft 356 kts 340°
2026-04-28 14:13 46.27594 -80.40066 12554 ft 357 kts 341°
2026-04-28 14:13 46.29979 -80.40882 11940 ft 351 kts 341°
2026-04-28 14:14 46.32342 -80.41694 11300 ft 343 kts 341°
2026-04-28 14:14 46.34626 -80.42477 10676 ft 335 kts 341°
2026-04-28 14:14 46.36869 -80.43250 10057 ft 329 kts 341°
2026-04-28 14:14 46.39069 -80.44007 9421 ft 323 kts 341°
2026-04-28 14:15 46.41224 -80.44751 8793 ft 319 kts 341°
2026-04-28 14:15 46.43343 -80.45483 8177 ft 314 kts 341°
2026-04-28 14:15 46.45421 -80.46199 7907 ft 297 kts 341°
2026-04-28 14:15 46.47387 -80.46873 7744 ft 279 kts 340°
2026-04-28 14:16 46.49227 -80.47507 7649 ft 271 kts 340°
2026-04-28 14:16 46.51071 -80.48141 7635 ft 275 kts 340°
2026-04-28 14:16 46.52959 -80.48798 7519 ft 282 kts 340°
2026-04-28 14:16 46.54883 -80.49466 7378 ft 285 kts 340°
2026-04-28 14:17 46.56829 -80.50141 7225 ft 286 kts 340°
2026-04-28 14:17 46.58762 -80.50813 7077 ft 287 kts 340°
2026-04-28 14:17 46.60697 -80.51483 6929 ft 287 kts 340°
2026-04-28 14:17 46.62642 -80.52159 6779 ft 288 kts 340°
2026-04-28 14:18 46.64599 -80.52840 6627 ft 288 kts 340°
2026-04-28 14:18 46.66554 -80.53519 6485 ft 288 kts 340°
2026-04-28 14:18 46.68461 -80.54181 6319 ft 278 kts 341°
2026-04-28 14:18 46.70282 -80.54817 6131 ft 262 kts 340°
2026-04-28 14:19 46.72035 -80.55427 5961 ft 258 kts 340°
2026-04-28 14:19 46.73194 -80.55866 5815 ft 258 kts 335°
2026-04-28 14:19 46.74605 -80.57219 5419 ft 230 kts 299°
2026-04-28 14:19 46.75667 -80.59730 4931 ft 215 kts 290°
2026-04-28 14:20 46.76401 -80.61597 4540 ft 210 kts 290°
2026-04-28 14:20 46.77116 -80.63430 4147 ft 206 kts 290°
2026-04-28 14:20 46.77541 -80.64636 3876 ft 197 kts 279°
2026-04-28 14:20 46.77330 -80.66734 3590 ft 140 kts 214°
2026-04-28 14:21 46.76837 -80.67336 3584 ft 143 kts 210°
2026-04-28 14:21 46.76014 -80.68251 3558 ft 150 kts 209°
2026-04-28 14:21 46.75107 -80.69088 3517 ft 159 kts 206°
2026-04-28 14:21 46.74020 -80.70703 3525 ft 172 kts 216°
2026-04-28 14:22 46.73350 -80.71300 3444 ft 171 kts 198°
2026-04-28 14:22 46.72240 -80.71922 3215 ft 171 kts 200°
2026-04-28 14:22 46.71238 -80.72732 2936 ft 157 kts 205°
2026-04-28 14:22 46.70326 -80.73473 2735 ft 139 kts 203°
2026-04-28 14:23 46.69515 -80.74123 2550 ft 124 kts 203°
2026-04-28 14:23 46.68811 -80.74702 2308 ft 109 kts 201°
2026-04-28 14:23 46.68143 -80.75259 2256 ft 117 kts 204°
2026-04-28 14:23 46.67425 -80.75842 2067 ft 118 kts 202°
2026-04-28 14:24 46.66714 -80.76437 1965 ft 119 kts 206°
2026-04-28 14:24 46.65997 -80.77071 1861 ft 120 kts 204°
2026-04-28 14:24 46.65269 -80.77657 1675 ft 121 kts 201°
2026-04-28 14:24 46.64534 -80.78223 1571 ft 120 kts 202°
2026-04-28 14:25 46.63800 -80.78824 1323 ft 118 kts 203°
2026-04-28 14:25 46.63093 -80.79404 1153 ft 112 kts 207°
2026-04-28 14:25 46.62543 -80.79848 1153 ft 68 kts 209°
2026-04-28 14:25 46.62210 -80.80123 1148 ft 43 kts 211°
2026-04-28 14:26 46.61991 -80.80301 1141 ft 27 kts 208°
2026-04-28 14:26 46.61837 -80.80430 1136 ft 21 kts 207°
2026-04-28 14:26 46.61750 -80.80393 1138 ft 10 kts 109°
2026-04-28 14:26 46.61753 -80.80316 1140 ft 9 kts 75°
2026-04-28 14:27 46.61774 -80.80203 1143 ft 12 kts 76°
2026-04-28 14:27 46.61826 -80.80094 1146 ft 14 kts 28°
2026-04-28 14:27 46.61926 -80.80011 1149 ft 18 kts 29°
2026-04-28 14:27 46.62046 -80.79912 1152 ft 21 kts 28°
2026-04-28 14:28 46.62168 -80.79811 1153 ft 19 kts 29°
2026-04-28 14:28 46.62285 -80.79711 1152 ft 18 kts 31°
2026-04-28 14:28 46.62371 -80.79639 1153 ft 6 kts 51°
2026-04-28 14:28 46.62354 -80.79588 1152 ft 0 kts 136°
2026-04-28 14:29 46.62352 -80.79584 1152 ft 0 kts 137°